KL4TQ Weather Reports


time (UTC)temp
C
wind
direction
speed
KPH
gust
KPH
rain 1hr
cm
rain 24hr
cm
rain mn
cm
humidity
%
barometer
mb
20260507085608 0 86 0.0 1.6 0.00 0.00 0.00 72 856.0
20260507085108 0 123 3.2 3.2 0.00 0.00 0.00 72 856.0
20260507084609 0 135 3.2 3.2 0.00 0.00 0.00 72 856.0
20260507084108 0 108 0.0 1.6 0.00 0.00 0.00 72 856.0
20260507083608 0 113 1.6 3.2 0.00 0.00 0.00 72 856.0
20260507083109 0 113 1.6 3.2 0.00 0.00 0.00 71 856.0
20260507082608 0 143 3.2 6.4 0.00 0.00 0.00 70 856.0
20260507082108 1 177 1.6 4.8 0.00 0.00 0.00 70 856.0
20260507081608 1 145 3.2 6.4 0.00 0.00 0.00 69 856.0
20260507081109 1 118 3.2 6.4 0.00 0.00 0.00 69 856.0
20260507080610 1 189 3.2 6.4 0.00 0.00 0.00 68 856.0
20260507080108 1 148 1.6 3.2 0.00 0.00 0.00 67 856.0
20260507075608 1 121 4.8 6.4 0.00 0.00 0.10 67 856.0
20260507075108 1 114 3.2 4.8 0.00 0.00 0.10 65 856.0
20260507074608 1 134 3.2 4.8 0.00 0.00 0.10 64 856.0
20260507074108 1 113 1.6 3.2 0.00 0.00 0.10 63 856.0
20260507073609 1 132 1.6 3.2 0.00 0.00 0.10 62 856.0
20260507073109 1 158 3.2 6.4 0.00 0.00 0.10 62 856.0
20260507072608 1 108 3.2 4.8 0.00 0.00 0.10 60 856.0
20260507072108 1 128 3.2 6.4 0.00 0.00 0.10 59 856.0
20260507071608 1 126 3.2 6.4 0.00 0.00 0.10 57 856.0
20260507071109 1 103 1.6 3.2 0.00 0.00 0.10 58 856.0
20260507070608 1 122 0.0 1.6 0.00 0.00 0.10 56 856.0
20260507070109 1 108 1.6 3.2 0.00 0.00 0.10 56 856.0
20260507065608 1 119 0.0 1.6 0.00 0.00 0.10 54 856.0
20260507065108 1 20 0.0 1.6 0.00 0.00 0.10 53 856.0
20260507064608 1 5 0.0 1.6 0.00 0.00 0.10 54 856.0
20260507064109 1 9 1.6 3.2 0.00 0.00 0.10 54 856.0
20260507063609 1 351 1.6 3.2 0.00 0.00 0.10 54 856.0
20260507063108 1 354 1.6 3.2 0.00 0.00 0.10 54 856.0
20260507062608 1 6 3.2 3.2 0.00 0.00 0.10 54 856.0
20260507062108 1 351 1.6 3.2 0.00 0.00 0.10 54 856.0
20260507061608 1 338 1.6 3.2 0.00 0.00 0.10 54 856.0
20260507061108 1 3 0.0 1.6 0.00 0.00 0.10 54 856.0
20260507060609 1 0 1.6 1.6 0.00 0.00 0.10 54 856.0
20260507060108 1 350 0.0 1.6 0.00 0.00 0.10 55 856.0
20260507055608 1 343 1.6 1.6 0.00 0.00 0.10 55 856.0
20260507055109 1 321 0.0 1.6 0.00 0.00 0.10 54 856.0
20260507054608 1 330 0.0 1.6 0.00 0.00 0.10 55 856.0
20260507054109 2 297 1.6 3.2 0.00 0.00 0.10 55 856.0
20260507053608 2 277 3.2 3.2 0.00 0.00 0.10 54 856.0
20260507053108 2 310 4.8 6.4 0.00 0.00 0.10 54 856.0
20260507052609 2 296 3.2 6.4 0.00 0.00 0.10 54 856.0
20260507052109 2 304 6.4 9.7 0.00 0.00 0.10 53 856.0
20260507051608 2 332 1.6 3.2 0.00 0.00 0.10 54 856.0
20260507051108 2 310 4.8 9.7 0.00 0.00 0.10 54 856.0
20260507050608 2 21 0.0 3.2 0.00 0.00 0.10 55 856.0
20260507050108 2 289 1.6 3.2 0.00 0.00 0.10 55 856.0
20260507045608 2 325 3.2 3.2 0.00 0.00 0.10 55 856.0
20260507045108 2 278 1.6 4.8 0.00 0.00 0.10 54 856.0
20260507044608 2 250 4.8 6.4 0.00 0.00 0.10 54 856.0
20260507044108 2 260 6.4 9.7 0.00 0.00 0.10 53 856.0
20260507043608 2 243 6.4 9.7 0.00 0.00 0.10 52 856.0
20260507043108 2 253 1.6 3.2 0.00 0.00 0.10 53 856.0
20260507042608 2 255 6.4 9.7 0.00 0.00 0.10 52 857.0
20260507042109 2 268 4.8 12.9 0.00 0.00 0.10 52 857.0
20260507041609 3 294 6.4 8.0 0.00 0.00 0.10 51 857.0
20260507041108 3 262 4.8 11.3 0.00 0.00 0.10 50 857.0
20260507040610 3 293 8.0 11.3 0.00 0.00 0.10 50 857.0
20260507040108 3 283 6.4 12.9 0.00 0.00 0.10 50 857.0
20260507035609 3 258 8.0 16.1 0.00 0.00 0.10 49 857.0
20260507035109 3 267 8.0 14.5 0.00 0.00 0.10 48 857.0
20260507034609 3 262 4.8 9.7 0.00 0.00 0.10 49 857.0
20260507034109 3 224 8.0 14.5 0.00 0.00 0.10 49 857.0
20260507033608 3 293 9.7 14.5 0.00 0.00 0.10 49 857.0
20260507033108 3 281 6.4 14.5 0.00 0.00 0.10 49 857.0
20260507032608 3 252 6.4 9.7 0.00 0.00 0.10 50 857.0
20260507032108 3 290 9.7 16.1 0.00 0.00 0.10 51 857.0
20260507031127 3 288 3.2 6.4 0.00 0.00 0.10 52 857.0
20260507030608 3 267 6.4 11.3 0.00 0.00 0.10 51 857.0
20260507030108 3 245 8.0 12.9 0.00 0.00 0.10 51 857.0
20260507025608 3 275 8.0 16.1 0.00 0.00 0.10 51 857.0
20260507025108 3 273 8.0 11.3 0.00 0.00 0.10 51 857.0
20260507024608 3 276 4.8 9.7 0.00 0.00 0.10 51 857.0
20260507024109 3 296 6.4 11.3 0.00 0.00 0.10 50 857.0
20260507023608 3 258 9.7 14.5 0.00 0.00 0.10 49 857.0
20260507023108 4 252 9.7 20.9 0.00 0.00 0.10 48 857.0
20260507022608 4 211 6.4 9.7 0.00 0.00 0.10 47 857.0
20260507022108 4 215 4.8 8.0 0.00 0.00 0.10 48 857.0
20260507021608 3 217 4.8 8.0 0.00 0.00 0.10 50 857.0
20260507021109 3 242 6.4 12.9 0.00 0.00 0.10 49 857.0
20260507020608 3 260 8.0 14.5 0.00 0.00 0.10 49 857.0
20260507020109 3 240 9.7 12.9 0.00 0.00 0.10 49 857.0
20260507015608 3 267 8.0 16.1 0.00 0.00 0.10 50 857.0
20260507015108 3 246 8.0 16.1 0.00 0.00 0.10 50 857.0
20260507014609 3 218 8.0 11.3 0.00 0.00 0.10 50 857.0
20260507014108 3 239 6.4 9.7 0.00 0.00 0.10 50 857.0
20260507013608 3 263 8.0 12.9 0.00 0.00 0.10 50 857.0
20260507013111 3 225 6.4 11.3 0.00 0.00 0.10 51 857.0
20260507012608 3 280 8.0 14.5 0.00 0.00 0.10 50 857.0
20260507012108 3 239 8.0 14.5 0.00 0.00 0.10 51 857.0
20260507011608 3 253 8.0 11.3 0.00 0.00 0.10 50 857.0
20260507011108 3 239 8.0 12.9 0.00 0.00 0.10 50 857.0
20260507010609 3 249 6.4 12.9 0.00 0.00 0.10 49 857.0
20260507010108 3 272 9.7 17.7 0.00 0.00 0.10 49 857.0
20260507005609 3 256 9.7 20.9 0.00 0.00 0.10 48 857.0
20260507005108 3 267 9.7 14.5 0.00 0.00 0.10 48 857.0
20260507004608 3 276 9.7 19.3 0.00 0.00 0.10 48 857.0
20260507004108 3 267 8.0 14.5 0.00 0.00 0.10 47 857.0
20260507003608 3 255 8.0 11.3 0.00 0.00 0.10 46 857.0
20260507003110 3 245 9.7 16.1 0.00 0.00 0.10 49 857.0
20260507002609 3 218 9.7 16.1 0.00 0.00 0.10 49 857.0
20260507002111 3 297 9.7 14.5 0.00 0.00 0.10 48 857.0
20260507001608 3 248 9.7 14.5 0.00 0.00 0.10 48 857.0
20260507001108 3 279 8.0 14.5 0.00 0.00 0.10 49 857.0
20260507000608 3 210 6.4 14.5 0.00 0.00 0.10 49 857.0
20260507000109 3 247 9.7 16.1 0.00 0.00 0.10 48 857.0
20260506235608 3 232 14.5 20.9 0.00 0.00 0.10 47 857.0
20260506235109 3 237 8.0 14.5 0.00 0.00 0.10 47 857.0
20260506234608 3 254 16.1 27.4 0.00 0.00 0.10 46 857.0
20260506234109 3 240 12.9 20.9 0.00 0.00 0.10 47 857.0
20260506233609 3 268 8.0 17.7 0.00 0.00 0.10 49 857.0
20260506233108 3 258 8.0 14.5 0.00 0.00 0.10 48 857.0
20260506232609 3 266 6.4 14.5 0.00 0.00 0.10 50 857.0
20260506232108 3 228 11.3 19.3 0.00 0.00 0.10 48 857.0
20260506231608 3 252 6.4 16.1 0.00 0.00 0.10 49 857.0
20260506231108 3 260 4.8 11.3 0.00 0.00 0.10 48 857.0
20260506230608 4 290 9.7 16.1 0.00 0.00 0.10 49 857.0
20260506230108 3 236 8.0 12.9 0.00 0.00 0.10 48 857.0
20260506225608 3 233 11.3 16.1 0.00 0.00 0.10 51 857.0
20260506225108 3 240 9.7 16.1 0.00 0.00 0.10 51 857.0
20260506224609 3 254 9.7 17.7 0.00 0.00 0.10 52 857.0
20260506224108 3 245 4.8 6.4 0.00 0.00 0.10 53 857.0
20260506223609 3 235 11.3 19.3 0.00 0.00 0.10 52 857.0
20260506223108 3 251 8.0 12.9 0.00 0.00 0.10 53 857.0
20260506222608 3 248 9.7 16.1 0.00 0.00 0.10 53 857.0
20260506222108 3 227 9.7 14.5 0.00 0.00 0.10 53 857.0
20260506221608 3 230 8.0 14.5 0.00 0.00 0.10 53 857.0
20260506221109 3 229 11.3 17.7 0.00 0.00 0.10 52 857.0
20260506220608 3 231 11.3 17.7 0.00 0.00 0.10 54 857.0
20260506220108 3 215 6.4 9.7 0.00 0.00 0.10 56 857.0
20260506215608 3 256 11.3 17.7 0.00 0.00 0.10 56 857.0
20260506215108 3 243 8.0 12.9 0.00 0.00 0.10 55 857.0
20260506214608 2 256 8.0 12.9 0.00 0.00 0.10 57 857.0
20260506214110 2 261 11.3 16.1 0.00 0.00 0.10 58 857.0
20260506213608 2 239 9.7 16.1 0.00 0.00 0.10 57 857.0
20260506213109 2 252 8.0 11.3 0.00 0.00 0.10 55 857.0
20260506212609 2 248 6.4 12.9 0.00 0.00 0.10 57 857.0
20260506212108 2 243 6.4 12.9 0.00 0.00 0.10 60 857.0
20260506211608 2 252 9.7 14.5 0.00 0.00 0.10 62 857.0
20260506211109 2 242 3.2 8.0 0.00 0.00 0.10 65 857.0
20260506210608 2 207 6.4 11.3 0.00 0.00 0.10 65 857.0
20260506210109 2 211 9.7 12.9 0.00 0.00 0.10 66 857.0
20260506205609 2 232 9.7 12.9 0.00 0.00 0.10 68 857.0
20260506205109 2 251 8.0 11.3 0.00 0.00 0.10 68 857.0
20260506204608 1 251 4.8 9.7 0.00 0.00 0.10 72 857.0
20260506204109 1 269 6.4 9.7 0.00 0.00 0.10 73 857.0
20260506203608 1 266 6.4 9.7 0.00 0.00 0.10 72 857.0
20260506203109 1 238 11.3 14.5 0.00 0.00 0.10 72 857.0
20260506202608 1 271 8.0 17.7 0.00 0.00 0.10 74 857.0
20260506202108 1 243 8.0 14.5 0.00 0.00 0.10 75 857.0
20260506201609 1 248 9.7 14.5 0.00 0.00 0.10 75 857.0
20260506201109 1 237 3.2 6.4 0.00 0.00 0.10 78 857.0
20260506200609 1 259 8.0 12.9 0.00 0.00 0.10 79 857.0
20260506200109 1 225 9.7 16.1 0.00 0.00 0.10 78 857.0
20260506195608 0 223 9.7 12.9 0.00 0.00 0.10 78 857.0
20260506195108 1 269 6.4 9.7 0.00 0.00 0.10 81 857.0
20260506194608 0 239 4.8 11.3 0.00 0.00 0.10 81 857.0
20260506194109 0 254 4.8 8.0 0.00 0.00 0.10 83 857.0
20260506193609 0 255 4.8 6.4 0.00 0.00 0.10 86 857.0
20260506193108 0 248 3.2 8.0 0.00 0.00 0.10 85 856.0
20260506192608 0 260 3.2 8.0 0.00 0.00 0.10 87 856.0
20260506192108 0 260 4.8 8.0 0.00 0.00 0.10 87 856.0
20260506191608 0 242 3.2 4.8 0.00 0.00 0.10 89 856.0
20260506191109 0 248 4.8 12.9 0.00 0.00 0.10 89 856.0
20260506190610 0 249 3.2 8.0 0.00 0.00 0.10 91 856.0
20260506190108 0 284 6.4 11.3 0.00 0.00 0.10 90 856.0
20260506185608 0 230 4.8 9.7 0.00 0.00 0.10 92 856.0
20260506185110 0 257 3.2 6.4 0.00 0.00 0.10 93 856.0
20260506184609 0 243 3.2 6.4 0.00 0.00 0.10 94 856.0
20260506184109 0 226 3.2 4.8 0.00 0.00 0.10 95 856.0
20260506183609 0 261 6.4 11.3 0.00 0.00 0.10 95 856.0
20260506183109 0 238 8.0 12.9 0.00 0.00 0.10 95 856.0
20260506182609 0 272 3.2 6.4 0.00 0.00 0.10 98 856.0
20260506182111 0 236 3.2 4.8 0.00 0.00 0.10 98 856.0
20260506181608 -1 244 3.2 8.0 0.00 0.00 0.10 99 856.0
20260506181108 -1 250 8.0 12.9 0.00 0.00 0.10 99 856.0
20260506180615 -1 258 4.8 6.4 0.00 0.00 0.10 99 856.0
20260506180109 -1 245 4.8 8.0 0.00 0.00 0.10 99 856.0
20260506175609 -1 246 4.8 8.0 0.00 0.00 0.10 99 856.0
20260506175109 -1 261 3.2 6.4 0.00 0.00 0.10 99 856.0
20260506174609 -1 248 6.4 11.3 0.00 0.00 0.10 99 856.0
20260506174109 -1 243 4.8 11.3 0.00 0.00 0.10 99 856.0
20260506173609 -1 242 9.7 16.1 0.00 0.00 0.10 99 856.0
20260506173108 -1 264 6.4 9.7 0.00 0.00 0.10 99 856.0
20260506172609 -1 233 6.4 9.7 0.00 0.00 0.10 99 856.0
20260506172108 -1 245 8.0 12.9 0.00 0.00 0.10 99 856.0
20260506171609 -1 240 6.4 14.5 0.00 0.00 0.10 100 856.0
20260506171108 -1 255 4.8 9.7 0.00 0.00 0.10 100 856.0
20260506170608 -1 231 3.2 9.7 0.00 0.00 0.10 100 856.0
20260506170109 -1 234 3.2 6.4 0.00 0.00 0.10 100 856.0
20260506165608 -1 246 6.4 11.3 0.00 0.00 0.10 100 856.0
20260506165109 -1 223 6.4 11.3 0.00 0.00 0.10 100 856.0
20260506164608 -1 258 4.8 11.3 0.00 0.00 0.10 100 856.0
20260506164108 -1 246 6.4 9.7 0.00 0.00 0.10 100 856.0
20260506163609 -1 255 4.8 8.0 0.00 0.00 0.10 100 856.0
20260506163109 -1 227 3.2 6.4 0.00 0.00 0.10 100 856.0
20260506162608 -1 242 6.4 11.3 0.00 0.00 0.10 100 856.0
20260506162108 -1 238 4.8 8.0 0.00 0.00 0.10 100 856.0
20260506161609 -1 262 4.8 11.3 0.00 0.00 0.10 100 856.0
20260506161108 -1 236 6.4 8.0 0.00 0.00 0.10 100 856.0
20260506160609 -1 259 4.8 11.3 0.00 0.00 0.10 100 856.0
20260506160109 -1 253 4.8 14.5 0.00 0.00 0.10 100 856.0
20260506155610 -1 244 4.8 8.0 0.00 0.00 0.10 100 856.0
20260506155110 -1 249 4.8 8.0 0.00 0.00 0.10 100 856.0
20260506154610 -1 233 4.8 9.7 0.00 0.00 0.10 100 856.0
20260506154109 -1 256 3.2 6.4 0.00 0.00 0.10 100 856.0
20260506153608 -1 248 8.0 12.9 0.00 0.00 0.10 100 856.0
20260506153108 -1 251 4.8 8.0 0.00 0.00 0.10 100 856.0
20260506152608 -1 237 8.0 11.3 0.00 0.00 0.10 99 856.0
20260506152109 -1 252 4.8 9.7 0.00 0.00 0.10 99 856.0
20260506151608 -1 246 8.0 11.3 0.00 0.00 0.10 99 856.0
20260506151108 -1 244 6.4 11.3 0.00 0.00 0.10 99 856.0
20260506150608 -1 249 6.4 9.7 0.00 0.00 0.10 99 856.0
20260506150108 -1 235 6.4 11.3 0.00 0.00 0.10 99 856.0
20260506145612 -1 243 4.8 8.0 0.00 0.00 0.10 99 856.0
20260506145110 -1 236 6.4 8.0 0.00 0.00 0.10 99 856.0
20260506144608 -1 253 4.8 8.0 0.00 0.00 0.10 99 856.0
20260506144111 -1 260 4.8 4.8 0.00 0.00 0.10 99 856.0
20260506143609 -1 258 4.8 6.4 0.00 0.00 0.10 99 856.0
20260506143108 -1 263 6.4 8.0 0.00 0.00 0.10 99 856.0
20260506142609 -1 252 4.8 8.0 0.00 0.00 0.10 99 856.0
20260506142109 -1 257 4.8 8.0 0.00 0.00 0.10 99 856.0
20260506141609 -1 271 4.8 9.7 0.00 0.00 0.10 99 856.0
20260506141109 0 228 3.2 9.7 0.00 0.00 0.10 99 856.0
20260506140608 0 259 6.4 11.3 0.00 0.00 0.10 99 856.0
20260506140108 0 265 4.8 8.0 0.00 0.00 0.10 99 856.0
20260506135608 0 231 8.0 12.9 0.00 0.00 0.10 100 856.0
20260506135110 0 268 3.2 6.4 0.00 0.00 0.10 99 856.0
20260506134609 0 253 3.2 4.8 0.00 0.00 0.10 100 856.0
20260506134118 0 249 3.2 4.8 0.00 0.00 0.10 100 856.0
20260506133608 0 240 3.2 4.8 0.00 0.00 0.10 100 856.0
20260506133110 0 265 3.2 8.0 0.00 0.00 0.10 100 856.0
20260506132608 0 261 4.8 9.7 0.00 0.00 0.10 100 856.0
20260506132109 0 240 3.2 6.4 0.00 0.00 0.10 100 856.0
20260506131608 0 262 6.4 12.9 0.00 0.00 0.10 100 856.0
20260506131109 0 259 6.4 11.3 0.00 0.00 0.10 100 856.0
20260506130609 0 247 8.0 12.9 0.00 0.00 0.10 100 856.0
20260506130109 0 251 8.0 14.5 0.00 0.00 0.10 100 856.0
20260506125608 0 244 6.4 12.9 0.00 0.00 0.10 100 856.0
20260506125109 0 251 3.2 6.4 0.00 0.00 0.10 100 856.0
20260506124608 0 260 8.0 14.5 0.00 0.00 0.10 100 856.0
20260506124109 0 246 6.4 9.7 0.00 0.00 0.10 100 856.0
20260506123608 0 229 3.2 4.8 0.00 0.00 0.10 99 856.0
20260506123109 0 226 4.8 9.7 0.00 0.00 0.10 99 856.0
20260506122609 0 243 6.4 11.3 0.00 0.00 0.10 99 856.0
20260506122108 0 246 6.4 8.0 0.00 0.00 0.10 99 856.0
20260506121609 0 246 3.2 6.4 0.00 0.00 0.10 99 856.0
20260506121108 0 261 6.4 12.9 0.00 0.00 0.10 99 856.0
20260506120608 0 257 6.4 11.3 0.00 0.00 0.10 99 856.0
20260506120109 0 260 4.8 6.4 0.00 0.00 0.10 99 856.0
20260506115609 0 239 4.8 8.0 0.00 0.00 0.10 99 856.0
20260506115109 0 239 4.8 8.0 0.00 0.00 0.10 99 856.0
20260506114608 0 240 4.8 6.4 0.00 0.00 0.10 99 856.0
20260506114109 0 243 6.4 11.3 0.00 0.00 0.10 99 856.0
20260506113609 0 247 6.4 9.7 0.00 0.00 0.10 99 856.0
20260506113108 0 261 4.8 6.4 0.00 0.00 0.10 98 856.0
20260506112609 0 257 8.0 16.1 0.00 0.00 0.10 98 856.0
20260506112108 0 250 8.0 14.5 0.00 0.00 0.10 99 856.0
20260506111609 0 242 6.4 12.9 0.00 0.00 0.10 99 856.0
20260506111108 0 229 3.2 9.7 0.00 0.00 0.10 99 856.0
20260506110608 0 242 6.4 8.0 0.00 0.00 0.10 99 856.0
20260506110109 0 237 3.2 6.4 0.00 0.00 0.10 99 856.0
20260506105608 0 243 4.8 8.0 0.00 0.00 0.10 99 856.0
20260506105109 0 236 3.2 6.4 0.00 0.00 0.10 98 856.0
20260506104608 0 234 4.8 8.0 0.00 0.00 0.10 98 856.0
20260506104109 0 262 4.8 9.7 0.00 0.00 0.10 98 856.0
20260506103608 0 247 6.4 11.3 0.00 0.00 0.10 99 856.0
20260506103108 0 246 9.7 14.5 0.00 0.00 0.10 99 856.0
20260506102613 0 250 6.4 11.3 0.00 0.00 0.10 99 856.0
20260506102108 0 253 8.0 14.5 0.00 0.00 0.10 99 856.0
20260506101609 1 248 6.4 9.7 0.00 0.00 0.10 99 856.0
20260506101109 1 237 8.0 12.9 0.00 0.00 0.10 99 856.0
20260506100611 1 244 6.4 11.3 0.00 0.00 0.10 99 856.0
20260506100108 1 240 8.0 14.5 0.00 0.00 0.10 99 856.0
20260506095609 1 248 6.4 9.7 0.00 0.00 0.10 99 856.0
20260506095108 1 228 9.7 14.5 0.00 0.00 0.10 99 856.0
20260506094608 1 249 6.4 11.3 0.00 0.00 0.10 99 856.0
20260506094108 1 261 6.4 9.7 0.00 0.00 0.10 99 856.0
20260506093608 1 252 4.8 6.4 0.00 0.00 0.10 99 856.0
20260506093108 1 271 3.2 6.4 0.00 0.00 0.10 99 856.0
20260506092608 1 255 4.8 11.3 0.00 0.00 0.10 99 856.0
20260506092108 1 258 6.4 9.7 0.00 0.00 0.10 99 856.0
20260506091608 1 267 6.4 12.9 0.00 0.00 0.10 99 856.0
20260506091108 1 242 3.2 6.4 0.00 0.00 0.10 99 856.0
20260506090608 1 256 3.2 4.8 0.00 0.00 0.10 99 856.0
20260506090109 1 262 3.2 8.0 0.00 0.00 0.10 99 856.0